Погода в Бовешене

Бельгия     50°46′49″N   4°46′26″E
темп.,
°C
ветер,
м/с
пор.,
м/с
влажн.,
%
обл.,
%
осадки,
мм/ч
давл.,
гПа
погр.,
м
19 апреля, пн
пн1923:00+8сз3874100 0.0 1023248
02:00+8сз3581100 0.0 1022164
05:00+7сз3583100 0.0 1021151
08:00+7ссз378358 0.0 1021287
11:00+10с4468100 0.0 1021736
14:00+8с238871 0.4 1021180
17:00+11св237598 0.5 1019693
20:00+10в228550 0.9 101944
20 апреля, вт
вт2023:00+6вюв229268 0.0 102024
02:00+7в228898 0.0 101923
05:00+5в22935 0.0 101915
08:00+6в12905 0.0 101975
11:00+12всв23725 0.0 1019638
14:00+15св225685 0.2 10181599
17:00+14ссв1261100 0.1 1017566
20:00+12с3470100 0.1 101767
21 апреля, ср
ср2123:00+10ссз3573100 0.0 1018121
02:00+9с3484100 0.0 101899
05:00+9ссв2389100 0.0 101874
08:00+9с3580100 0.0 1018157
11:00+10с4675100 0.0 1020357
14:00+13ссв346452 0.1 10191008
17:00+13ссв776676 0.8 10191230
20:00+9ссв48695 0.8 1020286
22 апреля, чт
чт2223:00+4ссв410725 0.0 1023291
02:00+2св368585 0.0 1024129
05:000св36905 0.0 1024110
08:00+2св368180 0.0 1025192
11:00+7св4557100 0.0 1026838
14:00+10ссв445074 0.0 10261147
17:00+12ссв45507 0.0 10251329
20:00+9ссв22675 0.0 102521
23 апреля, пт
пт2323:00+4всв33825 0.0 102735
02:00+2всв35885 0.0 102769
05:00+2в34920 0.0 102663
08:00+3всв35860 0.0 1026135
11:00+10всв45611 0.0 1026681
14:00+13в55465 0.0 10241040
17:00+14всв454426 0.0 10221176
20:00+10всв486782 0.0 1021167